Air Quality Table

TIMESTAMP NO2 SO2 O3 CO TEMP HUM AIRPRES WS WD NO BENZENE
2022-06-26 08:00 32.9 µg/m3 2.14 µg/m3 35.36 µg/m3 0.38 mg/m3 28.73 °C 48.49 % 1,013.43 mbar 0.71 m/s 155.58 Deg 9.65 µg/m3 0.63 µg/m3
2022-06-26 07:00 32.81 µg/m3 1.68 µg/m3 22.77 µg/m3 0.3 mg/m3 26.21 °C 54.97 % 1,032.67 mbar 1.07 m/s 222.22 Deg 12.98 µg/m3 0.63 µg/m3
2022-06-26 06:00 36.13 µg/m3 1.09 µg/m3 15.54 µg/m3 0.25 mg/m3 25.03 °C 52.8 % 1,012.34 mbar 0.76 m/s 103.98 Deg 15.13 µg/m3 0.63 µg/m3
2022-06-26 05:00 32.14 µg/m3 0.84 µg/m3 22.38 µg/m3 0.22 mg/m3 25.43 °C 49.71 % 1,012.34 mbar 0.77 m/s 222.56 Deg 10.11 µg/m3 0.63 µg/m3
2022-06-26 04:00 36.91 µg/m3 0.43 µg/m3 19.59 µg/m3 0.21 mg/m3 25.5 °C 40.88 % 1,012.09 mbar 0.58 m/s 22 Deg 11.06 µg/m3 0.63 µg/m3
2022-06-26 03:00 50 µg/m3 1.35 µg/m3 16.9 µg/m3 0.16 mg/m3 24.93 °C 38.64 % 1,011.98 mbar 0.69 m/s 165.59 Deg 9.27 µg/m3 0.63 µg/m3
2022-06-26 02:00 33.04 µg/m3 1.48 µg/m3 23.29 µg/m3 0.31 mg/m3 25.66 °C 39.83 % 1,012.07 mbar 0.89 m/s 179.18 Deg 10.09 µg/m3 0.63 µg/m3
2022-06-26 01:00 49.27 µg/m3 1.74 µg/m3 14.73 µg/m3 0.37 mg/m3 25.99 °C 55.79 % 1,012.37 mbar 0.88 m/s 135.72 Deg 19.96 µg/m3 0.63 µg/m3
2022-06-26 00:00 60.28 µg/m3 1.86 µg/m3 7.38 µg/m3 0.42 mg/m3 26.5 °C 41.72 % 1,012.71 mbar 0.82 m/s 284.72 Deg 29.27 µg/m3 0.63 µg/m3
2022-06-25 23:00 58.07 µg/m3 1.91 µg/m3 11.73 µg/m3 0.46 mg/m3 26.05 °C 36.13 % 1,012.92 mbar 0.6 m/s 160.64 Deg 38.68 µg/m3 0.63 µg/m3
2022-06-25 22:00 67.64 µg/m3 1.92 µg/m3 5.85 µg/m3 0.55 mg/m3 27.27 °C 37.37 % 1,013.17 mbar 0.7 m/s 209.62 Deg 54.8 µg/m3 0.63 µg/m3
2022-06-25 21:00 60.11 µg/m3 1.6 µg/m3 11.67 µg/m3 0.43 mg/m3 27.7 °C 35.79 % 1,008.02 mbar 0.46 m/s 128.55 Deg 32.6 µg/m3 0.63 µg/m3
2022-06-25 20:00 63.15 µg/m3 1.57 µg/m3 16.9 µg/m3 0.42 mg/m3 29.88 °C 36.54 % 1,012.60 mbar 0.57 m/s 218.59 Deg 28.72 µg/m3 0.63 µg/m3
2022-06-25 19:00 30.77 µg/m3 1.42 µg/m3 55.83 µg/m3 0.29 mg/m3 31.89 °C 29.93 % 1,012.38 mbar 1.01 m/s 244.8 Deg 10.2 µg/m3 0.63 µg/m3
2022-06-25 18:00 28.15 µg/m3 2.01 µg/m3 66.24 µg/m3 0.39 mg/m3 32.94 °C 28.49 % 1,012.32 mbar 1.49 m/s 231.4 Deg 6.84 µg/m3 0.63 µg/m3
2022-06-25 17:00 28.57 µg/m3 1.78 µg/m3 63.81 µg/m3 0.35 mg/m3 32.84 °C 26.99 % 1,012.38 mbar 1.99 m/s 234.53 Deg 9.47 µg/m3 0.63 µg/m3
2022-06-25 16:00 26.95 µg/m3 1.1 µg/m3 67.81 µg/m3 0.6 mg/m3 29.61 °C 51.94 % 1,012.88 mbar 2.65 m/s 238.45 Deg 6.68 µg/m3 0.63 µg/m3
2022-06-25 15:00 28.09 µg/m3 1.54 µg/m3 51.67 µg/m3 0.4 mg/m3 28.99 °C 57.75 % 1,012.77 mbar 2.77 m/s 192.74 Deg 11.16 µg/m3 0.63 µg/m3
2022-06-25 14:00 25.12 µg/m3 1.3 µg/m3 42.72 µg/m3 0.39 mg/m3 27.36 °C 81.55 % 1,013.42 mbar 3.12 m/s 51.67 Deg 8.39 µg/m3 0.63 µg/m3
2022-06-25 13:00 24.54 µg/m3 0.77 µg/m3 35.56 µg/m3 0.32 mg/m3 27.31 °C 82.82 % 1,013.85 mbar 3.13 m/s 55.7 Deg 10.73 µg/m3 0.63 µg/m3
2022-06-25 12:00 29.33 µg/m3 1.82 µg/m3 39.91 µg/m3 0.31 mg/m3 28.21 °C 69.34 % 1,014.13 mbar 2.67 m/s 34.95 Deg 13.7 µg/m3 0.63 µg/m3
2022-06-25 11:00 32.66 µg/m3 2.21 µg/m3 36.89 µg/m3 0.29 mg/m3 29.38 °C 55.07 % 1,014.12 mbar 2.51 m/s 195.91 Deg 15.16 µg/m3 0.63 µg/m3
2022-06-25 10:00 36.78 µg/m3 2.69 µg/m3 34.07 µg/m3 0.35 mg/m3 30.16 °C 36.76 % 1,023.05 mbar 1.55 m/s 189.93 Deg 16.32 µg/m3 0.63 µg/m3
2022-06-25 09:00 40.88 µg/m3 2.14 µg/m3 33.35 µg/m3 0.41 mg/m3 28.82 °C 38.83 % 1,013.59 mbar 1.5 m/s 66.84 Deg 22.81 µg/m3 0.63 µg/m3
2022-06-25 08:00 43.37 µg/m3 1.78 µg/m3 21.35 µg/m3 0.25 mg/m3 28.79 °C 30.8 % 1,013.33 mbar 1.03 m/s 165.38 Deg 28.05 µg/m3 0.63 µg/m3
2022-06-25 07:00 44.38 µg/m3 2.09 µg/m3 4.18 µg/m3 0.3 mg/m3 25.71 °C 36.79 % 1,013.09 mbar 19.88 m/s 174.71 Deg 77.58 µg/m3 0.63 µg/m3
2022-06-25 06:00 44.15 µg/m3 1.77 µg/m3 4.11 µg/m3 0.3 mg/m3 24.51 °C 32.13 % 1,012.73 mbar 0.52 m/s 195.23 Deg 92.71 µg/m3 0.63 µg/m3
2022-06-25 05:00 32.05 µg/m3 0.88 µg/m3 12.59 µg/m3 0.21 mg/m3 24.18 °C 33.47 % 1,012.39 mbar 1.05 m/s 227.94 Deg 37.19 µg/m3 0.63 µg/m3
2022-06-25 04:00 32.09 µg/m3 0.53 µg/m3 17.26 µg/m3 0.19 mg/m3 24.2 °C 42.16 % 1,012.17 mbar 0.43 m/s 209.28 Deg 12.29 µg/m3 0.63 µg/m3
2022-06-25 03:00 44.27 µg/m3 0.74 µg/m3 19.12 µg/m3 0.1 mg/m3 24.23 °C 53.72 % 1,012.32 mbar 0.38 m/s 210.29 Deg 18.65 µg/m3 0.63 µg/m3
2022-06-25 02:00 21.06 µg/m3 0.52 µg/m3 17.33 µg/m3 0.18 mg/m3 23.88 °C 60.52 % 1,012.43 mbar 0.54 m/s 221.48 Deg 5.81 µg/m3 0.63 µg/m3
2022-06-25 01:00 40.96 µg/m3 1.21 µg/m3 6.28 µg/m3 0.23 mg/m3 24.06 °C 63.64 % 1,012.82 mbar 0.57 m/s 244.15 Deg 22.41 µg/m3 0.63 µg/m3
2022-06-25 00:00 48.05 µg/m3 1.35 µg/m3 6.29 µg/m3 0.31 mg/m3 25.18 °C 57.17 % 1,012.91 mbar 0.68 m/s 261.17 Deg 41.65 µg/m3 0.63 µg/m3
2022-06-24 23:00 30.58 µg/m3 0.89 µg/m3 23.53 µg/m3 0.24 mg/m3 -503 °C 47.19 % 988.76 mbar 1.67 m/s 204.61 Deg 18.41 µg/m3 0.63 µg/m3
2022-06-24 22:00 32.66 µg/m3 0.86 µg/m3 22.55 µg/m3 0.26 mg/m3 25.87 °C 57.92 % 1,012.76 mbar 1.33 m/s 144.81 Deg 16.99 µg/m3 0.63 µg/m3
2022-06-24 21:00 36.38 µg/m3 0.51 µg/m3 26.4 µg/m3 0.22 mg/m3 26.15 °C 68.03 % 1,012.46 mbar 1.29 m/s 211.31 Deg 12.93 µg/m3 0.63 µg/m3
2022-06-24 20:00 28.41 µg/m3 0.34 µg/m3 34.32 µg/m3 0.17 mg/m3 26.86 °C 71.19 % 1,012.25 mbar 1.85 m/s 221.13 Deg 8.92 µg/m3 0.63 µg/m3
2022-06-24 19:00 16.33 µg/m3 0.39 µg/m3 43.16 µg/m3 0.1 mg/m3 28.58 °C 52.23 % 1,011.90 mbar 2.91 m/s 181.68 Deg 4.39 µg/m3 0.63 µg/m3
2022-06-24 18:00 12.33 µg/m3 0.69 µg/m3 42.5 µg/m3 0.09 mg/m3 29.48 °C 38.3 % 1,012.01 mbar 4.21 m/s 220.52 Deg 6.22 µg/m3 0.63 µg/m3
2022-06-24 17:00 11.19 µg/m3 0.74 µg/m3 46.11 µg/m3 0.1 mg/m3 30.13 °C 41.6 % 1,012.14 mbar 4.6 m/s 148.71 Deg 4.82 µg/m3 0.63 µg/m3
2022-06-24 16:00 12.05 µg/m3 0.91 µg/m3 58.22 µg/m3 0.1 mg/m3 30.17 °C 45.68 % 1,012.53 mbar 4.48 m/s 194.76 Deg 4.56 µg/m3 0.63 µg/m3
2022-06-24 15:00 15.34 µg/m3 1.09 µg/m3 59.86 µg/m3 0.1 mg/m3 30.61 °C 45.25 % 1,013.07 mbar 4.25 m/s 178.36 Deg 5.77 µg/m3 0.63 µg/m3
2022-06-24 14:00 18.31 µg/m3 0.96 µg/m3 52.72 µg/m3 0.11 mg/m3 31.52 °C 38.51 % 1,013.19 mbar 3.7 m/s 219.16 Deg 8.98 µg/m3 0.63 µg/m3
2022-06-24 13:00 16.05 µg/m3 1.34 µg/m3 54.21 µg/m3 0.11 mg/m3 31.35 °C 37.02 % 1,013.48 mbar 3.86 m/s 150.83 Deg 6.95 µg/m3 0.63 µg/m3
2022-06-24 12:00 17.92 µg/m3 1.39 µg/m3 58.89 µg/m3 0.11 mg/m3 31.19 °C 37.89 % 995.29 mbar 21.49 m/s 199.18 Deg 7.46 µg/m3 0.63 µg/m3
2022-06-24 11:00 13.79 µg/m3 0.64 µg/m3 62.96 µg/m3 0.12 mg/m3 30.19 °C 44.25 % 1,013.72 mbar 3.61 m/s 205.35 Deg 5.28 µg/m3 0.63 µg/m3
2022-06-24 10:00 17.16 µg/m3 0.51 µg/m3 61.17 µg/m3 0.14 mg/m3 30.02 °C 42.65 % 1,013.51 mbar 3.56 m/s 212.24 Deg 8.78 µg/m3 0.63 µg/m3
2022-06-24 09:00 24.27 µg/m3 0.75 µg/m3 55.99 µg/m3 0.15 mg/m3 29.62 °C 43.54 % 1,013.24 mbar 22.49 m/s 181.5 Deg 11.21 µg/m3 0.63 µg/m3
2022-06-24 08:00 26.97 µg/m3 0.38 µg/m3 48.13 µg/m3 0.17 mg/m3 28.14 °C 54.44 % 1,012.93 mbar 2.4 m/s 201.82 Deg 10.47 µg/m3 0.63 µg/m3
2022-06-24 07:00 35.39 µg/m3 0.54 µg/m3 25.76 µg/m3 0.2 mg/m3 25.76 °C 82.38 % 1,012.55 mbar 2.32 m/s 244.91 Deg 16.01 µg/m3 0.63 µg/m3
2022-06-24 06:00 45.68 µg/m3 0.46 µg/m3 24.75 µg/m3 0.22 mg/m3 24.52 °C 74.41 % 1,012.32 mbar 2.52 m/s 215.85 Deg 28.54 µg/m3 0.63 µg/m3
2022-06-24 05:00 25.47 µg/m3 0.16 µg/m3 41.83 µg/m3 0.16 mg/m3 24.41 °C 73.51 % 1,012.27 mbar 2.95 m/s 242.07 Deg 8.66 µg/m3 0.31 µg/m3
2022-06-24 04:00 16.63 µg/m3 0.09 µg/m3 59.28 µg/m3 0.14 mg/m3 24.3 °C 67.13 % 1,012.35 mbar 2.89 m/s 203.81 Deg 2.06 µg/m3 0.16 µg/m3
2022-06-24 03:00 25.39 µg/m3 0.23 µg/m3 58.8 µg/m3 0.09 mg/m3 24.57 °C 58.99 % 1,012.79 mbar 2.31 m/s 236.63 Deg 1.11 µg/m3 0.26 µg/m3
2022-06-24 02:00 9.13 µg/m3 -0.08 µg/m3 56.44 µg/m3 0.16 mg/m3 24.13 °C 61.6 % 1,013.15 mbar 2.45 m/s 226.32 Deg 1.19 µg/m3 0.73 µg/m3
2022-06-24 01:00 21.43 µg/m3 0.39 µg/m3 41.43 µg/m3 0.18 mg/m3 24.1 °C 55.05 % 1,013.57 mbar 1.48 m/s 195.92 Deg 4.07 µg/m3 0.63 µg/m3
2022-06-24 00:00 30.48 µg/m3 0.59 µg/m3 34.26 µg/m3 0.22 mg/m3 24.59 °C 56.19 % 1,013.78 mbar 0.9 m/s 186.86 Deg 7.19 µg/m3 0.73 µg/m3
2022-06-23 23:00 27.76 µg/m3 0.44 µg/m3 31.55 µg/m3 0.23 mg/m3 23.9 °C 72.67 % 1,014.22 mbar 1.01 m/s 215.46 Deg 7.41 µg/m3 1.42 µg/m3
2022-06-23 22:00 39.88 µg/m3 0.49 µg/m3 25.15 µg/m3 0.28 mg/m3 24.92 °C 74.06 % 1,014.25 mbar 0.77 m/s 252.24 Deg 12.72 µg/m3 1.78 µg/m3
2022-06-23 21:00 30.4 µg/m3 0.27 µg/m3 42.74 µg/m3 0.2 mg/m3 25.87 °C 68.79 % 1,013.84 mbar 1.65 m/s 225.11 Deg 7.95 µg/m3 0.73 µg/m3
2022-06-23 20:00 20.36 µg/m3 0.18 µg/m3 53.32 µg/m3 0.19 mg/m3 26.34 °C 66.12 % 1,013.03 mbar 3.35 m/s 209.16 Deg 3.02 µg/m3 0.47 µg/m3
2022-06-23 19:00 15.63 µg/m3 0.24 µg/m3 56.03 µg/m3 0.16 mg/m3 26.78 °C 70.86 % 1,012.92 mbar 5.01 m/s 221.14 Deg 3.12 µg/m3 0.31 µg/m3
2022-06-23 18:00 10.64 µg/m3 0.13 µg/m3 67.46 µg/m3 0.15 mg/m3 27.66 °C 62.1 % 1,012.85 mbar 5.57 m/s 257.17 Deg 2.57 µg/m3 0.31 µg/m3
2022-06-23 17:00 12.9 µg/m3 0.04 µg/m3 65.99 µg/m3 0.16 mg/m3 28.23 °C 58.68 % 1,013.33 mbar 5.02 m/s 244.41 Deg 3.7 µg/m3 0.26 µg/m3
2022-06-23 16:00 11.45 µg/m3 0.15 µg/m3 64.2 µg/m3 0.15 mg/m3 28.26 °C 63.43 % 1,013.78 mbar 5.76 m/s 243.64 Deg 3.55 µg/m3 0.26 µg/m3
2022-06-23 15:00 10.63 µg/m3 0.33 µg/m3 67.34 µg/m3 0.18 mg/m3 28.87 °C 56.89 % 1,013.92 mbar 5.39 m/s 218.76 Deg 3.74 µg/m3 0.37 µg/m3
2022-06-23 14:00 9.46 µg/m3 0.11 µg/m3 71.83 µg/m3 0.16 mg/m3 29 °C 49.75 % 1,014.34 mbar 4.99 m/s 791.81 Deg 3.19 µg/m3 0.37 µg/m3
2022-06-23 13:00 11.63 µg/m3 0.18 µg/m3 71.74 µg/m3 0.15 mg/m3 29.01 °C 48.05 % 1,014.33 mbar 4.65 m/s 260.62 Deg 5.22 µg/m3 0.31 µg/m3
2022-06-23 12:00 17.95 µg/m3 0.29 µg/m3 65.02 µg/m3 0.18 mg/m3 29.1 °C 51.15 % 1,014.40 mbar 4.26 m/s 210.9 Deg 7.65 µg/m3 0.47 µg/m3
2022-06-23 11:00 19.73 µg/m3 0.34 µg/m3 64.24 µg/m3 0.17 mg/m3 28.81 °C 49.75 % 1,014.25 mbar 4.29 m/s 196.18 Deg 7.83 µg/m3 0.37 µg/m3
2022-06-23 10:00 23.11 µg/m3 0.46 µg/m3 58.44 µg/m3 0.12 mg/m3 28.45 °C 52.79 % 1,014.32 mbar 3.73 m/s 159.61 Deg 9.24 µg/m3 0.47 µg/m3
2022-06-23 09:00 35.96 µg/m3 0.76 µg/m3 39.04 µg/m3 0.09 mg/m3 27.61 °C 59.97 % 1,014.18 mbar 3.33 m/s 205.54 Deg 12.3 µg/m3 0.05 µg/m3
2022-06-23 08:00 383.18 µg/m3 97.94 µg/m3 133.5 µg/m3 0.12 mg/m3 26.48 °C 69.15 % 1,013.91 mbar 2.9 m/s 239.03 Deg 10.86 µg/m3 0.37 µg/m3
2022-06-23 07:00 25.83 µg/m3 0.48 µg/m3 32.24 µg/m3 0.23 mg/m3 24.98 °C 83.08 % 1,013.50 mbar 2.42 m/s 255.59 Deg 10.37 µg/m3 0.73 µg/m3
2022-06-23 06:00 38.55 µg/m3 0.21 µg/m3 23.86 µg/m3 0.23 mg/m3 24.03 °C 81.4 % 1,013.19 mbar 2.84 m/s 242.06 Deg 23 µg/m3 0.47 µg/m3
2022-06-23 05:00 31.61 µg/m3 -0.07 µg/m3 43.71 µg/m3 0.19 mg/m3 23.47 °C 66.4 % 1,012.83 mbar 2.06 m/s 212.75 Deg 14.32 µg/m3 0.31 µg/m3
2022-06-23 04:00 20.03 µg/m3 0.08 µg/m3 55.4 µg/m3 0.14 mg/m3 23.38 °C 61.67 % 1,012.32 mbar 2.03 m/s 192.83 Deg 4.73 µg/m3 0.26 µg/m3
2022-06-23 03:00 25.9 µg/m3 0.01 µg/m3 55.38 µg/m3 0.08 mg/m3 23.74 °C 66.38 % 1,012.38 mbar 1.99 m/s 229.14 Deg 2.91 µg/m3 0.21 µg/m3
2022-06-23 02:00 13.09 µg/m3 0.01 µg/m3 45.88 µg/m3 0.15 mg/m3 23.72 °C 65.48 % 1,012.60 mbar 1.46 m/s 209.52 Deg 2.44 µg/m3 0.31 µg/m3
2022-06-23 01:00 15.74 µg/m3 0.08 µg/m3 53.36 µg/m3 0.15 mg/m3 24.03 °C 60.44 % 994.75 mbar 1.42 m/s 221.81 Deg 2.71 µg/m3 0.63 µg/m3
2022-06-23 00:00 16.87 µg/m3 0.1 µg/m3 42.71 µg/m3 0.18 mg/m3 24.13 °C 67.95 % 1,013.22 mbar 1.84 m/s 217.46 Deg 3.38 µg/m3 0.37 µg/m3
2022-06-22 23:00 18.28 µg/m3 -0.04 µg/m3 36.17 µg/m3 0.19 mg/m3 24.02 °C 85.87 % 1,013.45 mbar 2.1 m/s 235.18 Deg 5.67 µg/m3 0.68 µg/m3
2022-06-22 22:00 20.77 µg/m3 0.26 µg/m3 33.66 µg/m3 0.19 mg/m3 24.28 °C 86.24 % 1,013.60 mbar 2.14 m/s 242.52 Deg 5.78 µg/m3 0.73 µg/m3
2022-06-22 21:00 24.28 µg/m3 0.01 µg/m3 41.51 µg/m3 0.19 mg/m3 24.52 °C 82.56 % 1,013.16 mbar 1.66 m/s 243.32 Deg 6.71 µg/m3 0.63 µg/m3
2022-06-22 20:00 13.06 µg/m3 -0.02 µg/m3 53.94 µg/m3 0.16 mg/m3 25.28 °C 79.56 % 1,012.98 mbar 2.64 m/s 261.47 Deg 2.24 µg/m3 0.47 µg/m3
2022-06-22 19:00 12.77 µg/m3 0.18 µg/m3 49.44 µg/m3 0.14 mg/m3 26.21 °C 73.59 % 1,012.97 mbar 3.19 m/s 233.11 Deg 4.08 µg/m3 0.42 µg/m3
2022-06-22 18:00 12.02 µg/m3 0.11 µg/m3 56.56 µg/m3 0.13 mg/m3 26.98 °C 66.85 % 1,012.93 mbar 3.83 m/s 223.74 Deg 4.36 µg/m3 0.37 µg/m3
2022-06-22 17:00 17.64 µg/m3 0.03 µg/m3 53.85 µg/m3 0.14 mg/m3 27.9 °C 59.25 % 1,013.06 mbar 3.53 m/s 214.09 Deg 9.95 µg/m3 0.42 µg/m3
2022-06-22 16:00 10.05 µg/m3 0.39 µg/m3 64.95 µg/m3 0.12 mg/m3 28.54 °C 48.31 % 1,013.68 mbar 3.84 m/s 176.03 Deg 4.04 µg/m3 0.31 µg/m3
2022-06-22 15:00 9.62 µg/m3 0.3 µg/m3 66.17 µg/m3 0.13 mg/m3 28.1 °C 53.09 % 1,013.83 mbar 3.98 m/s 242.08 Deg 4.3 µg/m3 0.05 µg/m3
2022-06-22 14:00 10.46 µg/m3 -0.04 µg/m3 64.52 µg/m3 0.13 mg/m3 28 °C 57.08 % 1,013.58 mbar 4.86 m/s 185.89 Deg 4.07 µg/m3 0.26 µg/m3
2022-06-22 13:00 10.44 µg/m3 0.13 µg/m3 66.26 µg/m3 0.14 mg/m3 27.27 °C 59.96 % 1,013.60 mbar 5.83 m/s 176.37 Deg 4.22 µg/m3 0.37 µg/m3
2022-06-22 12:00 12.76 µg/m3 0.09 µg/m3 58.9 µg/m3 0.15 mg/m3 27.17 °C 62.2 % 1,013.97 mbar 5.56 m/s 246.38 Deg 6.2 µg/m3 0.26 µg/m3
2022-06-22 11:00 12.58 µg/m3 -0.05 µg/m3 64.76 µg/m3 0.16 mg/m3 27.15 °C 58.81 % 997.14 mbar 4.61 m/s 210.04 Deg 4.69 µg/m3 0.37 µg/m3
2022-06-22 10:00 19.04 µg/m3 0.04 µg/m3 50.65 µg/m3 0.16 mg/m3 26.5 °C 70.61 % 1,013.91 mbar 4.11 m/s 219.7 Deg 14.25 µg/m3 0.31 µg/m3
2022-06-22 09:00 17.1 µg/m3 0.03 µg/m3 49.82 µg/m3 0.16 mg/m3 26.06 °C 74.03 % 1,013.60 mbar 3.65 m/s 254.43 Deg 7.99 µg/m3 0.47 µg/m3
2022-06-22 08:00 23.48 µg/m3 -0.01 µg/m3 49.46 µg/m3 0.19 mg/m3 25.23 °C 82.68 % 1,013.38 mbar 2.72 m/s 239.35 Deg 11.33 µg/m3 0.63 µg/m3
2022-06-22 07:00 25.13 µg/m3 0.12 µg/m3 29.19 µg/m3 0.2 mg/m3 23.99 °C 90.62 % 1,012.73 mbar 2.36 m/s 248.98 Deg 10.03 µg/m3 0.26 µg/m3
2022-06-22 06:00 31.3 µg/m3 0.43 µg/m3 20.98 µg/m3 0.23 mg/m3 22.86 °C 94.96 % 1,012.35 mbar 2.36 m/s 241.95 Deg 17.77 µg/m3 6.14 µg/m3
2022-06-22 05:00 20.44 µg/m3 0 µg/m3 22.95 µg/m3 0.17 mg/m3 22.34 °C 96.03 % 1,012.20 mbar 2.2 m/s 244.75 Deg 7.84 µg/m3 0 µg/m3
2022-06-22 04:00 13.5 µg/m3 -0.13 µg/m3 41.06 µg/m3 0.14 mg/m3 22.54 °C 97.03 % 1,012.18 mbar 2.13 m/s 243.35 Deg 2.18 µg/m3 0.1 µg/m3
2022-06-22 03:00 25.83 µg/m3 0 µg/m3 33.33 µg/m3 0.11 mg/m3 22.83 °C 96.73 % 1,012.65 mbar 1.51 m/s 236.19 Deg 3.93 µg/m3 7.14 µg/m3
2022-06-22 02:00 3.24 µg/m3 -0.1 µg/m3 40.84 µg/m3 0.19 mg/m3 23.06 °C 95.54 % 1,012.97 mbar 1.55 m/s 240.92 Deg 0.27 µg/m3 0 µg/m3
2022-06-22 01:00 4.65 µg/m3 -0.17 µg/m3 46.13 µg/m3 0.19 mg/m3 23.24 °C 93.89 % 1,013.35 mbar 2.11 m/s 246.56 Deg 1.09 µg/m3 44.09 µg/m3
2022-06-22 00:00 8.62 µg/m3 0.22 µg/m3 50.88 µg/m3 0.21 mg/m3 23.42 °C 92.09 % 1,013.81 mbar 2.31 m/s 241.11 Deg 1.95 µg/m3 9.82 µg/m3
2022-06-21 23:00 10.87 µg/m3 -0 µg/m3 52.29 µg/m3 0.2 mg/m3 23.54 °C 89.76 % 1,014.06 mbar 2.73 m/s 244.84 Deg 2.26 µg/m3 0.73 µg/m3
2022-06-21 22:00 16.95 µg/m3 0.04 µg/m3 39.42 µg/m3 0.22 mg/m3 23.79 °C 87.4 % 1,014.26 mbar 2.45 m/s 243.24 Deg 4.67 µg/m3 0 µg/m3
2022-06-21 21:00 12.8 µg/m3 0.01 µg/m3 59.39 µg/m3 0.2 mg/m3 24.07 °C 84.17 % 1,014.16 mbar 2.4 m/s 253.41 Deg 2.2 µg/m3 0 µg/m3
2022-06-21 20:00 9.11 µg/m3 0.15 µg/m3 66.5 µg/m3 0.18 mg/m3 24.61 °C 79.04 % 1,014.06 mbar 3.33 m/s 257.69 Deg 1.38 µg/m3 0 µg/m3
2022-06-21 19:00 14.41 µg/m3 0.16 µg/m3 59.33 µg/m3 0.17 mg/m3 25.57 °C 74.01 % 1,014.15 mbar 3.57 m/s 229.64 Deg 3.99 µg/m3 14.01 µg/m3
2022-06-21 18:00 8.59 µg/m3 0.21 µg/m3 65.72 µg/m3 0.16 mg/m3 26.02 °C 70.57 % 1,014.06 mbar 5.01 m/s 246.75 Deg 2.42 µg/m3 0 µg/m3
2022-06-21 17:00 13.62 µg/m3 0.26 µg/m3 60.7 µg/m3 0.18 mg/m3 26.66 °C 67.64 % 1,014.37 mbar 4.67 m/s 259.55 Deg 5.38 µg/m3 0 µg/m3
2022-06-21 16:00 12.86 µg/m3 0.34 µg/m3 68.23 µg/m3 0.17 mg/m3 27.4 °C 61.24 % 1,014.85 mbar 4.24 m/s 237.44 Deg 5.12 µg/m3 0 µg/m3
2022-06-21 15:00 11.83 µg/m3 0.48 µg/m3 76.32 µg/m3 0.18 mg/m3 27.73 °C 58.4 % 1,014.97 mbar 4.1 m/s 249.07 Deg 4.69 µg/m3 0 µg/m3
2022-06-21 14:00 12.66 µg/m3 0.38 µg/m3 85.13 µg/m3 0.18 mg/m3 27.47 °C 58.45 % 1,015.23 mbar 4.06 m/s 246.34 Deg 4.33 µg/m3 0.37 µg/m3
2022-06-21 13:00 14.5 µg/m3 0.26 µg/m3 79.29 µg/m3 0.19 mg/m3 27.04 °C 64.73 % 1,015.42 mbar 4.35 m/s 226.47 Deg 5.01 µg/m3 10.71 µg/m3
2022-06-21 12:00 13.98 µg/m3 0.54 µg/m3 80.88 µg/m3 0.19 mg/m3 33.48 °C 63.28 % 1,015.60 mbar 4.34 m/s 232.16 Deg 3.99 µg/m3 14.7 µg/m3
2022-06-21 11:00 20.07 µg/m3 0.8 µg/m3 78.63 µg/m3 0.2 mg/m3 26.8 °C 59.28 % 997.42 mbar 4.07 m/s 146.08 Deg 6.82 µg/m3 0 µg/m3
2022-06-21 10:00 19.65 µg/m3 0.57 µg/m3 78.25 µg/m3 0.2 mg/m3 26.71 °C 59.57 % 1,016.00 mbar 3.64 m/s 178.01 Deg 7.61 µg/m3 0 µg/m3
2022-06-21 09:00 18.25 µg/m3 0.55 µg/m3 77.87 µg/m3 0.21 mg/m3 25.95 °C 64.95 % 1,016.02 mbar 3.12 m/s 216.11 Deg 6.51 µg/m3 0 µg/m3
2022-06-21 08:00 22.11 µg/m3 0.61 µg/m3 74.17 µg/m3 0.22 mg/m3 25.42 °C 64.58 % 1,015.56 mbar 2.2 m/s 227.41 Deg 7.33 µg/m3 7.56 µg/m3
2022-06-21 07:00 48.94 µg/m3 1.43 µg/m3 20.8 µg/m3 0.34 mg/m3 23.83 °C 79.19 % 1,014.88 mbar 0.99 m/s 238.48 Deg 42.4 µg/m3 15.27 µg/m3
2022-06-21 06:00 53.03 µg/m3 2.2 µg/m3 7.58 µg/m3 0.36 mg/m3 21.58 °C 89.94 % 1,014.52 mbar 0.96 m/s 232.1 Deg 77.37 µg/m3 33.96 µg/m3
2022-06-21 05:00 45.59 µg/m3 0.84 µg/m3 10.95 µg/m3 0.26 mg/m3 21.56 °C 89.76 % 1,014.40 mbar 0.94 m/s 226.13 Deg 36.66 µg/m3 0 µg/m3
2022-06-21 04:00 25.13 µg/m3 0.02 µg/m3 74.78 µg/m3 0.18 mg/m3 21.34 °C 87.85 % 1,014.37 mbar 0.92 m/s 230.16 Deg 5.88 µg/m3 4.36 µg/m3
2022-06-21 03:00 32.7 µg/m3 0.09 µg/m3 38.83 µg/m3 0.12 mg/m3 21.6 °C 85.08 % 1,014.85 mbar 1.02 m/s 230.99 Deg 8.05 µg/m3 1.68 µg/m3
2022-06-21 02:00 11.29 µg/m3 0.27 µg/m3 43.61 µg/m3 0.2 mg/m3 21.56 °C 82.84 % 1,014.99 mbar 0.92 m/s 239.23 Deg 1.12 µg/m3 0.79 µg/m3
2022-06-21 01:00 12.92 µg/m3 0.41 µg/m3 67.6 µg/m3 0.22 mg/m3 21.76 °C 81.69 % 1,015.22 mbar 0.85 m/s 239.55 Deg 1.67 µg/m3 8.14 µg/m3
2022-06-21 00:00 25.02 µg/m3 0.64 µg/m3 65.61 µg/m3 0.24 mg/m3 22.33 °C 79.15 % 1,015.57 mbar 0.75 m/s 235.79 Deg 3.77 µg/m3 1.36 µg/m3
2022-06-20 23:00 32.47 µg/m3 0.37 µg/m3 37.28 µg/m3 0.24 mg/m3 22.95 °C 76.99 % 1,015.89 mbar 0.77 m/s 221.76 Deg 4.5 µg/m3 0 µg/m3
2022-06-20 22:00 28.43 µg/m3 0.39 µg/m3 66.83 µg/m3 0.25 mg/m3 23.44 °C 73.56 % 1,015.82 mbar 0.73 m/s 215.98 Deg 3.24 µg/m3 0 µg/m3
2022-06-20 21:00 33.43 µg/m3 0.53 µg/m3 69.9 µg/m3 0.23 mg/m3 24.16 °C 69.65 % 1,015.45 mbar 0.75 m/s 204.48 Deg 5.7 µg/m3 4.41 µg/m3
2022-06-20 20:00 21.47 µg/m3 0.32 µg/m3 74.6 µg/m3 0.2 mg/m3 24.75 °C 66.4 % 1,015.08 mbar 1.68 m/s 178.01 Deg 2.11 µg/m3 0 µg/m3
2022-06-20 19:00 21.18 µg/m3 0.69 µg/m3 92.2 µg/m3 0.2 mg/m3 25.88 °C 60.85 % 1,014.81 mbar 2.24 m/s 231.15 Deg 3.59 µg/m3 5.2 µg/m3
2022-06-20 18:00 18.09 µg/m3 0.82 µg/m3 93.18 µg/m3 0.2 mg/m3 26.07 °C 57.62 % 1,014.75 mbar 2.63 m/s 246.09 Deg 3.96 µg/m3 11.28 µg/m3
2022-06-20 17:00 15.68 µg/m3 1.06 µg/m3 97.93 µg/m3 0.21 mg/m3 26.34 °C 65.86 % 1,014.52 mbar 2.19 m/s 175.48 Deg 4.29 µg/m3 0.79 µg/m3
2022-06-20 16:00 12.06 µg/m3 1.36 µg/m3 98.81 µg/m3 0.22 mg/m3 26.12 °C 67.57 % 1,014.59 mbar 2.22 m/s 161.16 Deg 2.84 µg/m3 9.87 µg/m3
2022-06-20 15:00 14.29 µg/m3 1.42 µg/m3 98.71 µg/m3 0.21 mg/m3 26.54 °C 60.34 % 1,014.75 mbar 2.4 m/s 21.82 Deg 4.57 µg/m3 2.26 µg/m3
2022-06-20 14:00 13.27 µg/m3 0.93 µg/m3 93.26 µg/m3 0.22 mg/m3 25.86 °C 62.21 % 1,015.00 mbar 3.08 m/s 92.99 Deg 3.66 µg/m3 0 µg/m3
2022-06-20 13:00 17.4 µg/m3 1.01 µg/m3 91.13 µg/m3 0.22 mg/m3 25.48 °C 64.76 % 1,015.06 mbar 3.08 m/s 68.77 Deg 5.87 µg/m3 0 µg/m3
2022-06-20 12:00 17.64 µg/m3 0.95 µg/m3 78.78 µg/m3 0.2 mg/m3 25.37 °C 1.42E+23 % 1,015.23 mbar 3.3 m/s 259.53 Deg 5.43 µg/m3 0 µg/m3
2022-06-20 11:00 18.96 µg/m3 1.25 µg/m3 70.76 µg/m3 0.2 mg/m3 24.94 °C 67.55 % 1,015.26 mbar 3.39 m/s 160.37 Deg 6 µg/m3 3.94 µg/m3
2022-06-20 10:00 22.35 µg/m3 1.04 µg/m3 66.73 µg/m3 0.17 mg/m3 24.53 °C 70.74 % 1,015.21 mbar 3.08 m/s 5.4 Deg 7.15 µg/m3 0 µg/m3
2022-06-20 09:00 30.71 µg/m3 1.07 µg/m3 59.22 µg/m3 0.19 mg/m3 24.13 °C 74.56 % 1,015.04 mbar 2.77 m/s 47.57 Deg 10.84 µg/m3 5.3 µg/m3
2022-06-20 08:00 29.91 µg/m3 1.13 µg/m3 59.64 µg/m3 0.23 mg/m3 23.99 °C 78.02 % 1,014.72 mbar 2.07 m/s 55.81 Deg 15.35 µg/m3 14.28 µg/m3
2022-06-20 07:00 39.51 µg/m3 1.58 µg/m3 25 µg/m3 0.31 mg/m3 23.33 °C 86.95 % 1,014.25 mbar 0.63 m/s 98.27 Deg 31.4 µg/m3 0 µg/m3
2022-06-20 06:00 53.29 µg/m3 2.24 µg/m3 -3.95 µg/m3 0.43 mg/m3 22.02 °C 91.9 % 1,013.78 mbar 0.06 m/s 179.15 Deg 98.37 µg/m3 8.92 µg/m3
2022-06-20 05:00 49.35 µg/m3 1.41 µg/m3 -7.1 µg/m3 0.35 mg/m3 21.76 °C 92 % 1,013.44 mbar 0.15 m/s 206.08 Deg 65.91 µg/m3 7.35 µg/m3
2022-06-20 04:00 34.93 µg/m3 0.72 µg/m3 25.54 µg/m3 0.21 mg/m3 22.35 °C 89.04 % 1,013.33 mbar 0.68 m/s 110.78 Deg 6.31 µg/m3 0 µg/m3
2022-06-20 03:00 42.74 µg/m3 0.31 µg/m3 35.92 µg/m3 0.14 mg/m3 22.29 °C 88 % 1,013.49 mbar 0.58 m/s 120.85 Deg 6.27 µg/m3 7.56 µg/m3
2022-06-20 02:00 16.7 µg/m3 0.38 µg/m3 36.08 µg/m3 0.24 mg/m3 22.04 °C 91.17 % 1,013.65 mbar 0.12 m/s 173.74 Deg 1.67 µg/m3 2.99 µg/m3
2022-06-20 01:00 26.08 µg/m3 0.43 µg/m3 19.36 µg/m3 0.23 mg/m3 22.27 °C 90.01 % 1,014.00 mbar 0.09 m/s 179.42 Deg 8.64 µg/m3 3.67 µg/m3
2022-06-20 00:00 30.1 µg/m3 0.56 µg/m3 19.36 µg/m3 0.31 mg/m3 22.37 °C 87.72 % 1,014.20 mbar 0.27 m/s 231.99 Deg 7.82 µg/m3 10.81 µg/m3
2022-06-19 23:00 41.64 µg/m3 1.1 µg/m3 16.4 µg/m3 0.34 mg/m3 22.65 °C 79.28 % 1,014.43 mbar 0.42 m/s 224.14 Deg 13.6 µg/m3 1.89 µg/m3
2022-06-19 22:00 59.64 µg/m3 1.47 µg/m3 15.73 µg/m3 0.47 mg/m3 23.3 °C 73.12 % 1,014.32 mbar 0.36 m/s 227.64 Deg 25.2 µg/m3 9.87 µg/m3
2022-06-19 21:00 66.83 µg/m3 1.35 µg/m3 17.31 µg/m3 0.39 mg/m3 23.9 °C 67.97 % 1,014.08 mbar 0.84 m/s 159.07 Deg 28.6 µg/m3 23.46 µg/m3
2022-06-19 20:00 52.71 µg/m3 0.98 µg/m3 41.98 µg/m3 0.3 mg/m3 25.33 °C 57.58 % 997.66 mbar 0.79 m/s 187.48 Deg 12.82 µg/m3 0 µg/m3
2022-06-19 19:00 34.49 µg/m3 1.05 µg/m3 65.67 µg/m3 0.26 mg/m3 27.18 °C 52.77 % 1,013.22 mbar 1.03 m/s 107.79 Deg 6.24 µg/m3 0.58 µg/m3
2022-06-19 18:00 24.38 µg/m3 1.13 µg/m3 75.24 µg/m3 0.26 mg/m3 26.6 °C 68.65 % 1,012.87 mbar 2.37 m/s 114.82 Deg 5.49 µg/m3 0.89 µg/m3
2022-06-19 17:00 21.11 µg/m3 0.83 µg/m3 82.95 µg/m3 0.27 mg/m3 26.59 °C 69.91 % 1,012.94 mbar 2.95 m/s 24.34 Deg 5.21 µg/m3 16.11 µg/m3
2022-06-19 16:00 17.51 µg/m3 1.11 µg/m3 87.31 µg/m3 0.23 mg/m3 26.29 °C 70.23 % 1,013.23 mbar 3.4 m/s 177.67 Deg 5.71 µg/m3 0.05 µg/m3
2022-06-19 15:00 14.72 µg/m3 0.93 µg/m3 88.65 µg/m3 0.21 mg/m3 25.61 °C 75.12 % 1,013.61 mbar 4.06 m/s 100.31 Deg 5.04 µg/m3 0 µg/m3
2022-06-19 14:00 10.48 µg/m3 0.4 µg/m3 94.15 µg/m3 0.24 mg/m3 25.34 °C 77.07 % 1,014.05 mbar 4.28 m/s 48.07 Deg 3.55 µg/m3 21.1 µg/m3
2022-06-19 13:00 11.73 µg/m3 0.5 µg/m3 99.05 µg/m3 0.23 mg/m3 25.2 °C 77.9 % 1,014.36 mbar 4.19 m/s 45.81 Deg 3.37 µg/m3 8.19 µg/m3
2022-06-19 12:00 14.27 µg/m3 0.48 µg/m3 93.52 µg/m3 0.24 mg/m3 24.95 °C 78.79 % 1,014.41 mbar 4.6 m/s 63.32 Deg 3.51 µg/m3 4.57 µg/m3
2022-06-19 11:00 14.71 µg/m3 0.65 µg/m3 109.97 µg/m3 0.24 mg/m3 25.09 °C 77.56 % 1,014.31 mbar 4.07 m/s 45.51 Deg 3.22 µg/m3 0 µg/m3
2022-06-19 10:00 15.36 µg/m3 0.61 µg/m3 95.61 µg/m3 0.27 mg/m3 25.35 °C 75.14 % 1,014.33 mbar 3.49 m/s 242.8 Deg 3.42 µg/m3 0 µg/m3

It is to be noted that the data is provisional and subject to quality assurance procedures. For validated data kindly refer your request to contact.air@era.org.mt